ARIANE 3 DEB, 33538

Orbit data source: Space-Track

ARIANE 3 DEB, 33538 is space debris in HEO originally from a launch on Thu, 08 Sep 1988 UTC launched from the French Guiana (FRGUI). Debris objects in space refer to the collection of defunct objects orbiting the Earth. Examples of debris include non-operational satellites, rocket bodies, and fragments generated from explosions, collisions, or faulty payload assembly.

Loading next visibility...
Identifier
33538, 1988-081N
Orbit
HEO
Country
Flag of FRFR
Related business
Manufacturer
Unknown
Mission
Spacecraft
Bus & Motor
Unknown
Mass
Unknown
Launch date (UTC)
1988-09-08 (37 years ago)
Launch vehicle
Unknown
Launch site
French Guiana (FRGUI)
Object type
Payload
Rocket body
Debris
Shape & HBR
Unknown shape, 1.1 m
Radar Cross Section
Small (<0.1 m²)

Expand to show TLE details & history
Last TLE update: 16 hours ago

TLE from 16 hours ago
0 ARIANE 3 DEB
1 33538U 88081N   25307.69420029  .00000214  00000-0  26734-2 0  9997
2 33538   7.1073  76.4874 7205565 143.6344 299.2343  2.24333374165413
Epoch: 2025-11-03T16:39Z
TLE epoch observation values (Epoch: 2025-11-03T16:39:38.905Z)
Latitude
-0.0001°
Longitude
143.48359°
Altitude
21,765.081 km
Speed
3.486 km/s
True Right ascension
05h 06m 21s
True Declination
0° 00' 00"
Sunlit
Object was in daylight at epoch
Visualization orbit readout
Latitude
Unknown
Longitude
Unknown
Altitude
Unknown
Speed
Unknown
Apparent Right ascension
Unknown
Apparent Declination
Unknown
Sunlit
N/A
Visualization observer readout
Local Sidereal Time
04:58:58
Azimuth
Unknown
Elevation
Unknown
Doppler factor
Unknown
Orbital elements
Apogee altitude
36,041.543 km
Perigee altitude
511.438 km
Semi-major axis
24,654.627 km
Eccentricity
0.72056
Inclination
7.1073°
RAAN
76.4874°
Arg. of periapsis
143.6344°
True anomaly
216.59828°
Mean anomaly
299.2343°
Eccentric anomaly
258.74363°
Mean motion
0.56065 °/min
Orbital period
642.11 mins
BSTAR
0.0026734
Loading maneuver chart data...
Computing Atmospheric mass density...
Loading historical data...
Loading historical data...
Loading historical data...
Loading historical data...
Loading historical data...
Loading historical data...
Loading historical data...

Documentation

Showing up to 5 results
|